Weather History for KOJC - October, 2011

Change the Weather History Date:

Wednesday, October 12, 2011

  Actual Average Record
Temperature  
Mean Temperature 68 °F 58 °F  
Max Temperature 79 °F 68 °F - ()
Min Temperature 57 °F 49 °F - ()
Degree Days  
Heating Degree Days 0 7  
Month to date heating degree days 18 73  
Since 1 July heating degree days 96 122  
Cooling Degree Days 3 1  
Month to date cooling degree days 33 19  
Year to date cooling degree days 1700 1340  
Growing Degree Days 18 (Base 50)    
Moisture  
Dew Point 56 °F    
Average Humidity 70    
Maximum Humidity 97    
Minimum Humidity 42    
Precipitation  
Precipitation T in 0.12 in - ()
Month to date precipitation T 1.48  
Year to date precipitation 24.39 33.95  
Sea Level Pressure  
Sea Level Pressure 29.69 in    
Wind  
Wind Speed 9 mph (SW)    
Max Wind Speed 18 mph    
Max Gust Speed 28 mph    
Visibility 9 miles    
Events Rain , Thunderstorm    
T = Trace of Precipitation, MM = Missing Value Source: NWS Daily Summary

Daily Weather History Graph

Daily Weather History Graph

Search for Another Location

Airport or City:

Trip Planner

Search our weather history database for the weather conditions in past years. The results will help you decide how hot, cold, wet, or windy it might be!

Date:

Astronomy

Oct. 12, 2011 Rise Set
Actual Time 7:25 AM CDT 6:45 PM CDT
Civil Twilight 6:58 AM CDT 7:11 PM CDT
Nautical Twilight 6:27 AM CDT 7:42 PM CDT
Astronomical Twilight 5:56 AM CDT 8:13 PM CDT
Moon 6:48 PM CDT (10/12) 7:59 AM CDT (10/12)
Length of Visible Light 12h 13m
Length of Day
11h 20m
Full, 100% of the Moon is Illuminated
Oct 12
Full
Oct 19
Last Quarter
Oct 26
New
Nov 2
First Quarter
Nov 10
Full

Hourly Weather History & Observations

Time (CDT) Temp. Dew Point Humidity Pressure Visibility Wind Dir Wind Speed Gust Speed Precip Events Conditions
12:53 AM 60.1 °F 57.0 °F 90% 29.77 in 10.0 mi SSE 5.8 mph - N/A   Clear
1:53 AM 60.1 °F 57.9 °F 93% 29.76 in 10.0 mi SSE 3.5 mph - N/A   Mostly Cloudy
2:53 AM 59.0 °F 57.9 °F 96% 29.75 in 9.0 mi South 6.9 mph - N/A   Partly Cloudy
3:53 AM 59.0 °F 57.9 °F 96% 29.74 in 7.0 mi SSE 4.6 mph - N/A   Mostly Cloudy
4:53 AM 59.0 °F 57.9 °F 96% 29.73 in 6.0 mi SSE 4.6 mph - N/A   Mostly Cloudy
5:53 AM 59.0 °F 57.9 °F 96% 29.73 in 8.0 mi SSE 4.6 mph - 0.00 in   Clear
6:53 AM 59.0 °F 57.9 °F 96% 29.74 in 6.0 mi South 3.5 mph - N/A   Partly Cloudy
7:53 AM 59.0 °F 57.9 °F 96% 29.71 in 4.0 mi SSE 5.8 mph - N/A   Partly Cloudy
8:53 AM 61.0 °F 59.0 °F 93% 29.71 in 5.0 mi South 5.8 mph - N/A   Clear
9:53 AM 64.0 °F 60.1 °F 87% 29.70 in 9.0 mi South 9.2 mph - N/A   Clear
10:53 AM 66.9 °F 57.9 °F 73% 29.70 in 10.0 mi SSW 9.2 mph - N/A   Scattered Clouds
11:01 AM 68.0 °F 57.2 °F 68% 29.72 in 10.0 mi SW 10.4 mph - N/A   Mostly Cloudy
11:17 AM 69.8 °F 57.2 °F 64% 29.71 in 10.0 mi SSW 11.5 mph - N/A   Scattered Clouds
11:53 AM 71.1 °F 57.9 °F 63% 29.68 in 10.0 mi SSW 10.4 mph 16.1 mph N/A   Partly Cloudy
12:53 PM 75.0 °F 57.0 °F 53% 29.67 in 10.0 mi SSW 9.2 mph - N/A   Scattered Clouds
1:53 PM 77.0 °F 54.0 °F 45% 29.64 in 10.0 mi WSW 12.7 mph 16.1 mph N/A   Partly Cloudy
3:53 PM 78.1 °F 53.1 °F 42% 29.61 in 10.0 mi NW 12.7 mph 17.3 mph N/A   Scattered Clouds
4:06 PM 75.2 °F 53.6 °F 47% 29.64 in 10.0 mi Variable 5.8 mph - N/A Thunderstorm Scattered Clouds
4:21 PM 73.4 °F 53.6 °F 50% 29.64 in 10.0 mi WNW 12.7 mph - 0.00 in Rain Light Rain
4:41 PM 69.8 °F 60.8 °F 73% 29.64 in 10.0 mi WNW 5.8 mph - 0.00 in Rain , Thunderstorm Light Rain
4:53 PM 69.1 °F 60.1 °F 73% 29.62 in 9.0 mi NW 3.5 mph - 0.00 in Rain , Thunderstorm Light Thunderstorms and Rain
5:19 PM 73.4 °F 59.0 °F 61% 29.64 in 10.0 mi NW 4.6 mph - 0.00 in   Clear
5:53 PM 73.9 °F 55.9 °F 53% 29.62 in 10.0 mi NNW 9.2 mph - 0.00 in   Partly Cloudy
6:53 PM 70.0 °F 53.1 °F 55% 29.65 in 10.0 mi NNW 11.5 mph 21.9 mph N/A   Partly Cloudy
7:53 PM 66.9 °F 52.0 °F 59% 29.68 in 10.0 mi NNW 15.0 mph 24.2 mph N/A   Clear
9:53 PM 63.0 °F 53.1 °F 70% 29.73 in 10.0 mi NNW 10.4 mph - N/A   Scattered Clouds
10:53 PM 63.0 °F 52.0 °F 67% 29.75 in 10.0 mi NNW 15.0 mph 21.9 mph N/A   Mostly Cloudy
11:53 PM 59.0 °F 52.0 °F 78% 29.75 in 10.0 mi NNW 8.1 mph - 0.00 in   Clear